Regional Weather Roundup
Issued by NWS

Home | Current Version | Previous Version | Text Only | Print | Product List | Glossary Off
Versions: 1 2 3 4 5 6 7 8 9 10 11 12 13 14 15 16 17 18 19 20 21 22 23 24 25 26 27 28 29 30 31 32 33 34 35 36 37 38 39 40 41 42 43 44 45 46 47 48 49 50

000
ASUS43 KMPX 271001
RWRMN
WEATHER ROUNDUP FOR MINNESOTA
NATIONAL WEATHER SERVICE TWIN CITIES/CHANHASSEN MN
500 AM CDT THU JUL 27 2017


NOTE: "FAIR" INDICATES FEW OR NO CLOUDS BELOW 12,000 FEET WITH NO
SIGNIFICANT WEATHER AND/OR OBSTRUCTIONS TO VISIBILITY. N/A MEANS
CURRENT SKY AND/OR WEATHER CONDITIONS ARE NOT AVAILABLE.

MNZ060>063-068>070-271100-
   Twin Cities Metro

CITY           SKY/WX    TMP DP  RH WIND       PRES   REMARKS
TWIN CITIES    CLEAR     68  60  75 N8        30.05R
ST PAUL        CLEAR     66  62  87 W5        30.05R
CRYSTAL        CLEAR     63  57  81 N5        30.04S
BLAINE         CLEAR     64  61  88 N5        30.06S
LAKEVILLE      CLEAR     63  63 100 NW3       30.05S
EDEN PRAIRIE   CLEAR     67  61  81 N7        30.04S
SOUTH ST PAUL  CLEAR     67  61  80 N6        30.04S
LAKE ELMO      FAIR      63  61  94 CALM      30.06S
$$
MNZ001>005-007-008-013>017-022>024-027-028-271100-
   Northwest Minnesota

CITY           SKY/WX    TMP DP  RH WIND       PRES   REMARKS
BEMIDJI        CLEAR     55  55  97 NW5       30.12S
HALLOCK        CLEAR     54  54 100 SE5       30.09F FOG
ROSEAU         CLEAR     63  57  82 W8        30.10S
WARROAD        CLEAR     57  54  88 CALM      30.10S
CROOKSTON      CLEAR     57  55  94 CALM      30.11S
FOSSTON        MOCLDY    54  52  94 CALM      30.13S FOG
DETROIT LAKES  CLEAR     63  59  88 CALM      30.14R
MOORHEAD       CLEAR     57  55  94 CALM      30.12S
PARK RAPIDS    CLEAR     58  54  86 N3        30.11S
MAHNOMEN       FAIR      57  56  99 CALM      30.12S
$$
MNZ006-009>011-018-025>026-271100-
   North Central Minnesota

CITY           SKY/WX    TMP DP  RH WIND       PRES   REMARKS
BAUDETTE       CLEAR     57  57 100 W3        30.09S FOG
FLAG ISLAND    CLEAR     64  61  88 NW3       30.08S
INTL FALLS     FOG       50  48  93 CALM      30.08S VSB 1/4
WASKISH        CLEAR     59  55  88 CALM      30.10S
BIG FORK       PTCLDY    52  52 100 CALM      30.11R
LONGVILLE        N/A     55  55 100 CALM      30.10S FOG
GRAND RAPIDS   CLEAR     57  56  96 CALM      30.11S FOG
CRANE LAKE     CLEAR     50  48  93 CALM      30.10R
ORR            CLEAR     54  52  94 CALM      30.07R
COOK             N/A     54  54 100 CALM      30.10R
WALKER         FAIR      57  56  97 CALM      30.11S
$$
MNZ012-019>021-037-271100-
   Northeast Minnesota

CITY           SKY/WX    TMP DP  RH WIND       PRES   REMARKS
DULUTH         CLEAR     60  59  96 CALM      30.08R
ELY            CLEAR     52  52 100 CALM      30.08S
HIBBING        CLEAR     51  51 100 CALM      30.09S
EVELETH        CLEAR     53  50  90 CALM      30.10S
DULUTH HARBOR  CLEAR     63  61  94 CALM      30.07R
TWO HARBORS    CLEAR     63  57  82 CALM      30.05S
SILVER BAY     CLEAR     57  57 100 CALM      30.06R
GRAND MARAIS     N/A     68  58  70 N10       30.03R
G MARAIS ARPRT CLEAR     54  50  87 NW3       30.10R
$$
MNZ029>031-032-039>041-046>048-054>057-064-271100-
   West Central Minnesota

CITY           SKY/WX    TMP DP  RH WIND       PRES   REMARKS
FERGUS FALLS   CLEAR     63  63 100 CALM      30.11S
WHEATON        CLEAR     61  57  88 CALM      30.12F
MORRIS         CLEAR     61  59  94 NW3       30.10S
ALEXANDRIA     CLEAR     63  60  90 N5        30.13R
ELBOW LAKE     FOG       64  62  95 CALM      30.12S VSB 1/2
WADENA         CLEAR     57  57 100 N3        30.11S
GLENWOOD       CLEAR     63  61  94 N7        30.11S
APPLETON       CLEAR     63  59  88 CALM      30.09S
BENSON           N/A     61  59  94 CALM      30.11S FOG
ORTONVILLE     CLEAR     63  59  88 MISG      30.10F
MADISON        CLEAR     63  63 100 NW5       30.10S
WILLMAR        FAIR      64  61  88 N3        30.10S
$$
MNZ033>034-036-042>043-049>051-058-059-271100-
   Central Minnesota

CITY           SKY/WX    TMP DP  RH WIND       PRES   REMARKS
ST CLOUD       CLEAR     62  61  96 NW3       30.08S
SAUK CENTRE    FAIR      60  59  97 N3        30.11S
PAYNESVILLE    CLEAR     59  58  97 CALM      30.10S
AITKIN         FOG       52  50  93 CALM      30.09R VSB 1/2
PINE RIVER     CLEAR     54  54 100 CALM      30.14S
BRAINERD       CLEAR     57  56  96 CALM      30.10R
STAPLES        CLEAR     57  57 100 CALM      30.11S
LONG PRAIRIE   FAIR      59  57  94 CALM      30.11S
LITTLE FALLS   CLEAR     57  55  94 CALM      30.10S FOG
LITCHFIELD     CLEAR     64  63  94 CALM      30.09S
BUFFALO        CLEAR     63  59  87 CALM      30.08S
MAPLE LAKE     CLEAR     64  61  92 CALM      30.09R
HUTCHINSON     CLEAR     65  63  93 N6        30.09S
$$
MNZ037-044-045-052-053-271100-
   East Central Minnesota

CITY           SKY/WX    TMP DP  RH WIND       PRES   REMARKS
PRINCETON      CLEAR     61  59  94 N3        30.08S
MORA           CLEAR     59  55  88 CALM      30.10R
CAMBRIDGE      CLEAR     63  55  77 NW3       30.06S
RUSH CITY      PTCLDY    61  58  91 N3        30.07S
MOOSE LAKE     CLEAR     59  55  88 CALM      30.06S
HINCKLEY       FAIR      61  59  94 N3        30.08R
CLOQUET        CLEAR     57  55  94 NW6       30.08S
MCGREGOR       CLEAR     59  57  94 NW5       30.09S
$$
MNZ071>073-080-081-089-090-097-098-271100-
   Southwest Minnesota

CITY           SKY/WX    TMP DP  RH WIND       PRES   REMARKS
MONTEVIDEO     CLEAR     61  55  82 N3        30.10S
CANBY          CLEAR     62  60  94 CALM      30.12S
MARSHALL       CLEAR     60  59  96 NW7       30.10S
REDWOOD FALLS  CLEAR     64  60  87 N6        30.07F
OLIVIA         CLEAR     61  59  94 CALM      30.08S
PIPESTONE      CLEAR     63  59  88 NE5       30.11S
WINDOM         CLEAR     61  59  94 N6        30.08S
WORTHINGTON    CLEAR     59  57  93 NW5       30.09F
JACKSON        CLEAR     59  57  94 CALM      30.08S
TRACY          CLEAR     63  61  94 NW6       30.10S
SLAYTON        HVY RAIN  59  56  89 NW3       30.11S
$$
MNZ065>067-074>077-082>085-091>093-271100-
   South Central Minnesota

CITY           SKY/WX    TMP DP  RH WIND       PRES   REMARKS
MANKATO        CLEAR     62  60  93 CALM      30.06S
NEW ULM        CLEAR     64  61  88 N6        30.06F
ST JAMES       CLEAR     61  59  94 NW3       30.07F
FAIRMONT       CLEAR     62  60  93 N6        30.06S
GLENCOE        CLEAR     64  64  97 NW5       30.07S
FARIBAULT      CLEAR     63  63 100 CALM      30.06R
OWATONNA         N/A     61  59  94 CALM      30.05S FOG
WASECA         CLEAR     63  61  94 N6        30.06S
ALBERT LEA     CLEAR     63  63 100 N6        30.04F
$$
MNZ078>079-086>088-094>096-271100-
   Southeast Minnesota

CITY           SKY/WX    TMP DP  RH WIND       PRES   REMARKS
ROCHESTER      CLEAR     62  60  93 NW8       30.04S
RED WING       FOG       63  61  94 CALM      30.02S VSB 1/2
STANTON        CLEAR     60  58  95 CALM      30.03S
DODGE CENTER   CLEAR     63  59  88 NW6       30.05R
WINONA         FOG       64  63  94 CALM      30.02S VSB 1
AUSTIN         CLEAR     63  59  88 N6        30.04S
PRESTON        CLEAR     62  59  90 N6        30.03S
$$
ABBREVIATIONS USED IN REMARKS
   TC - TEMPERATURES IN CELSIUS
  WCI - WIND CHILL INDEX
   HX - HEAT INDEX
  VSB - VISIBILITY
$$




USA.gov is the U.S. government's official web portal to all federal, state and local government web resources and services.